Weather History for Modesto, CA

Change the Weather History Date:

Tuesday, November 13, 2012

  Actual Average Record
Temperature  
Mean Temperature 51 °F -  
Max Temperature 67 °F 67 °F 77 °F (1986)
Min Temperature 34 °F 45 °F 27 °F (1938)
Degree Days  
Heating Degree Days 14 9  
Month to date heating degree days 106 92  
Since 1 July heating degree days 165 155  
Cooling Degree Days 0 0  
Month to date cooling degree days 1 0  
Year to date cooling degree days 1710 1696  
Moisture  
Dew Point 36 °F    
Average Humidity 66    
Maximum Humidity 92    
Minimum Humidity 32    
Precipitation  
Precipitation 0.00 in 0.04 in 1.13 in (1981)
Month to date precipitation 0.17 0.52  
Year to date precipitation 7.14 10.23  
Since 1 July precipitation 0.29 1.48  
Snow  
Snow 0.00 in - 0.00 in (2002)
Month to date snowfall 0.0  
Since 1 July snowfall 0.0  
Since 1 September snowfall 0.0  
Snow Depth -    
Sea Level Pressure  
Sea Level Pressure 30.19 in    
Wind  
Wind Speed 1 mph (West)    
Max Wind Speed 7 mph    
Max Gust Speed 18 mph    
Visibility 9 miles    
Events      
T = Trace of Precipitation, MM = Missing Value Source: NWS Daily Summary

Daily Weather History Graph

Daily Weather History Graph

Search for Another Location

Airport:

Trip Planner

Search our weather history database for the weather conditions in past years. The results will help you decide how hot, cold, wet, or windy it might be!

Date:

Astronomy

Nov. 13, 2012 Rise Set
Actual Time 6:42 AM PST 4:53 PM PST
Civil Twilight 6:14 AM PST 5:21 PM PST
Nautical Twilight 5:42 AM PST 5:53 PM PST
Astronomical Twilight 5:11 AM PST 6:24 PM PST
Moon 6:26 AM PST (11/13) 4:52 PM PST (11/13)
Length of Visible Light 11h 07m
Length of Day
10h 11m
Waning Crescent, 0% of the Moon is Illuminated
Nov 13
Waning Crescent
Nov 13
New
Nov 20
First Quarter
Nov 28
Full
Dec 6
Last Quarter

Hourly Weather History & Observations

Time (PST) Temp. Windchill Dew Point Humidity Pressure Visibility Wind Dir Wind Speed Gust Speed Precip Events Conditions
12:53 AM 39.0 °F 35.7 °F 33.1 °F 79% 30.28 in 10.0 mi ESE 4.6 mph - N/A   Clear
1:53 AM 37.9 °F - 35.1 °F 89% 30.27 in 9.0 mi Calm Calm - N/A   Clear
2:53 AM 37.9 °F - 35.1 °F 89% 30.26 in 10.0 mi Calm Calm - N/A   Clear
3:53 AM 35.1 °F - 32.0 °F 89% 30.26 in 8.0 mi Calm Calm - N/A   Clear
4:53 AM 35.1 °F - 33.1 °F 92% 30.25 in 7.0 mi Calm Calm - N/A   Clear
5:53 AM 36.0 °F - 33.1 °F 89% 30.26 in 7.0 mi Calm Calm - N/A   Clear
6:53 AM 35.1 °F - 33.1 °F 92% 30.27 in 6.0 mi Calm Calm - N/A   Clear
7:53 AM 41.0 °F - 35.1 °F 79% 30.27 in 8.0 mi Calm Calm - N/A   Clear
8:53 AM 48.0 °F - 37.0 °F 66% 30.27 in 9.0 mi Calm Calm - N/A   Clear
9:53 AM 52.0 °F - 36.0 °F 54% 30.25 in 9.0 mi Calm Calm - N/A   Clear
10:53 AM 57.0 °F - 35.1 °F 44% 30.23 in 10.0 mi Calm Calm - N/A   Clear
11:53 AM 60.1 °F - 34.0 °F 38% 30.20 in 10.0 mi Calm Calm - N/A   Clear
12:53 PM 64.0 °F - 34.0 °F 33% 30.16 in 10.0 mi Calm Calm - N/A   Clear
1:53 PM 66.0 °F - 35.1 °F 32% 30.12 in 10.0 mi Calm Calm - N/A   Clear
2:53 PM 66.0 °F - 35.1 °F 32% 30.12 in 10.0 mi West 3.5 mph - N/A   Clear
3:53 PM 66.0 °F - 36.0 °F 33% 30.12 in 10.0 mi NW 4.6 mph - N/A   Clear
4:53 PM 64.0 °F - 37.0 °F 37% 30.12 in 10.0 mi Calm Calm - N/A   Clear
5:53 PM 54.0 °F - 41.0 °F 62% 30.12 in 10.0 mi Calm Calm - N/A   Clear
6:53 PM 53.1 °F - 39.9 °F 61% 30.12 in 10.0 mi Calm Calm - N/A   Clear
7:53 PM 50.0 °F - 41.0 °F 71% 30.11 in 10.0 mi Calm Calm - N/A   Clear
8:53 PM 48.9 °F - 41.0 °F 74% 30.11 in 9.0 mi West 3.5 mph - N/A   Clear
9:53 PM 44.1 °F 42.5 °F 39.0 °F 82% 30.13 in 8.0 mi ESE 3.5 mph - N/A   Clear
10:53 PM 45.0 °F - 39.9 °F 82% 30.14 in 8.0 mi Calm Calm - N/A   Clear
11:53 PM 44.1 °F - 39.0 °F 82% 30.14 in 8.0 mi Calm Calm - N/A   Clear